This demonstration page uses our WeatherBlox Daily Observations layout. Learn more.

Left ArrowRight Arrow

39.51506, -84.39828

Hourly Observations for September 18, 2016

Temp ( °F °C ) Dew Point ( °F °C ) Humidity (%) Winds ( mph kmh ) Pressure ( in mb ) Visibility ( mi km ) Precip ( " mm )
12:15 am 00:15 Cloudy 74 23.3 69 20.4 84 84 SW 3 6 30.00 1016 7 11 N/A
12:35 am 00:35 Cloudy 74 23.6 69 20.6 83 83 SSW 5 7 30.00 1016 10 16 N/A
12:55 am 00:55 Cloudy 74 23.6 69 20.5 83 83 SSW 6 9 30.00 1016 10 16 N/A
1:15 am 01:15 Cloudy 72 22.4 67 19.3 83 83 SSW 5 7 30.00 1016 7 11 N/A
1:35 am 01:35 Cloudy 72 22.3 67 19.3 83 83 SW 6 9 30.00 1016 7 11 N/A
1:55 am 01:55 Mostly Cloudy 72 22.3 67 19.3 83 83 SSW 7 11 30.00 1016 7 11 N/A
2:15 am 02:15 Cloudy with Haze 72 22.3 67 19.4 84 84 SSW 5 7 30.00 1016 5 8 N/A
2:35 am 02:35 Cloudy with Haze 72 22.3 67 19.4 84 84 SW 3 6 30.00 1016 5 8 N/A
2:55 am 02:55 Cloudy with Haze 71 21.6 66 18.9 85 85 SW 3 6 30.00 1016 5 8 N/A
3:15 am 03:15 Cloudy with Haze 71 21.6 66 19 85 85 SSW 3 6 30.00 1016 5 8 N/A
3:35 am 03:35 Cloudy with Haze 72 22.3 67 19.6 85 85 SW 3 6 30.00 1016 5 8 N/A
3:55 am 03:55 Cloudy with Haze 72 22.3 67 19.6 85 85 N N/A 29.97 1015 5 8 N/A
4:15 am 04:15 Cloudy with Haze 72 22.3 67 19.6 85 85 N N/A 29.97 1015 5 8 N/A
4:35 am 04:35 Cloudy 72 22.3 67 19.5 84 84 N N/A 29.97 1015 7 11 N/A
4:55 am 04:55 Mostly Cloudy with Haze 72 22.3 67 19.5 84 84 N N/A 29.97 1015 5 8 N/A
5:15 am 05:15 Mostly Cloudy with Haze 70 21 65 18.1 84 84 N N/A 29.97 1015 4 6 N/A
5:35 am 05:35 Cloudy with Haze 70 21.1 65 18.4 85 85 N N/A 29.97 1015 5 8 N/A
5:55 am 05:55 Cloudy with Haze 71 21.5 66 18.9 85 85 N N/A 29.97 1015 5 8 N/A
6:15 am 06:15 Cloudy with Haze 69 20.8 65 18.1 85 85 N N/A 30.00 1016 3 4 N/A
6:35 am 06:35 Cloudy with Haze 69 20.8 65 18.1 85 85 N N/A 30.00 1016 3 4 N/A
6:55 am 06:55 Cloudy with Haze 69 20.8 65 18.2 85 85 N N/A 30.00 1016 3 5 N/A
7:15 am 07:15 Mostly Cloudy with Haze 69 20.8 65 18.1 85 85 N N/A 30.00 1016 3 5 N/A
7:35 am 07:35 Mostly Cloudy with Haze 69 20.8 65 18.2 85 85 N N/A 30.00 1016 3 5 N/A
7:55 am 07:55 Cloudy with Haze 69 20.8 65 18.1 85 85 N N/A 30.00 1016 3 4 N/A
8:15 am 08:15 Mostly Cloudy with Haze 71 21.5 66 18.9 85 85 N N/A 30.00 1016 3 5 N/A
8:35 am 08:35 Mostly Cloudy with Haze 73 22.5 68 19.8 85 85 N N/A 30.00 1016 4 6 N/A
8:55 am 08:55 Mostly Cloudy 74 23.6 69 20.5 83 83 N N/A 30.00 1016 7 11 N/A
9:15 am 09:15 Mostly Cloudy 74 23.6 68 20.2 81 81 N N/A 30.00 1016 7 11 N/A
9:35 am 09:35 Mostly Cloudy 74 23.6 68 20 80 80 N N/A 30.00 1016 10 16 N/A
9:55 am 09:55 Partly Cloudy 74 23.6 68 19.9 80 80 N N/A 30.00 1016 10 16 N/A
10:15 am 10:15 Partly Cloudy 74 23.6 67 19.5 78 78 N N/A 30.00 1016 10 16 N/A
10:35 am 10:35 Mostly Cloudy 77 25 69 20.4 76 76 N N/A 30.00 1016 10 16 N/A
10:55 am 10:55 Cloudy 76 24.3 67 19.2 73 73 N N/A 30.00 1016 10 16 N/A
11:15 am 11:15 Cloudy 77 25.1 68 19.8 73 73 N N/A 30.00 1016 10 16 N/A
11:35 am 11:35 Cloudy 77 25.1 67 19.6 72 72 N N/A 30.00 1016 10 16 N/A
11:55 am 11:55 Cloudy 77 25.1 66 19.1 69 69 N N/A 30.00 1016 10 16 N/A
12:15 pm 12:15 Mostly Cloudy 79 26.1 67 19.4 67 67 N N/A 30.00 1016 10 16 N/A
12:35 pm 12:35 Partly Cloudy 80 26.4 67 19.3 65 65 N N/A 30.00 1016 10 16 N/A
12:55 pm 12:55 Partly Cloudy 80 26.5 66 18.7 62 62 SW 3 6 30.00 1016 10 16 N/A
1:15 pm 13:15 Partly Cloudy 80 26.5 63 17.2 57 57 SSE 3 6 30.00 1016 10 16 N/A
1:35 pm 13:35 Sunny 81 27 64 17.5 56 56 SSE 6 9 29.97 1015 10 16 N/A
1:55 pm 13:55 Partly Cloudy 80 26.9 63 17.3 56 56 SSE 3 6 29.97 1015 10 16 N/A
2:15 pm 14:15 Partly Cloudy 81 27.4 64 18 57 57 N N/A 29.97 1015 10 16 N/A
2:35 pm 14:35 Partly Cloudy 82 28 63 17 51 51 WSW 5 7 29.94 1014 10 16 N/A
2:55 pm 14:55 Sunny 82 28 62 16.5 50 50 SSW 3 6 29.94 1014 10 16 N/A
3:15 pm 15:15 Mostly Cloudy 81 27.2 61 16 50 50 W 3 6 29.94 1014 10 16 N/A
3:35 pm 15:35 Mostly Cloudy 81 27.2 63 17.4 55 55 WNW 3 6 29.94 1014 10 16 N/A
3:55 pm 15:55 Partly Cloudy 82 28 61 16.1 48 48 WSW 3 6 29.91 1013 10 16 N/A
4:15 pm 16:15 Partly Cloudy 82 28 62 16.6 50 50 WNW 5 7 29.91 1013 10 16 N/A
4:35 pm 16:35 Sunny 81 27.4 60 15.7 49 49 N N/A 29.94 1014 10 16 N/A
4:55 pm 16:55 Sunny 82 28 61 16.3 49 49 WNW 3 6 29.88 1012 10 16 N/A
5:15 pm 17:15 Sunny 82 27.9 61 16.2 49 49 W 6 9 29.91 1013 10 16 N/A
5:35 pm 17:35 Sunny 82 27.7 62 16.7 51 51 W 5 7 29.88 1012 10 16 N/A
5:55 pm 17:55 Sunny 82 28 60 15.8 47 47 W 5 7 29.91 1013 10 16 N/A
6:15 pm 18:15 Sunny 82 28 59 15.1 45 45 WSW 3 6 29.88 1012 10 16 N/A
6:35 pm 18:35 Sunny 81 27.3 60 15.8 49 49 W 3 6 29.88 1012 10 16 N/A
6:55 pm 18:55 Sunny 80 26.5 64 18 60 60 N N/A 29.91 1013 10 16 N/A
7:15 pm 19:15 Sunny 78 25.4 66 18.8 67 67 N N/A 29.94 1014 10 16 N/A
7:35 pm 19:35 Sunny 76 24.5 67 19.3 73 73 N N/A 29.94 1014 10 16 N/A
7:55 pm 19:55 Clear 74 23.6 67 19.6 78 78 N N/A 29.94 1014 10 16 N/A
8:15 pm 20:15 Clear 74 23.6 68 19.8 79 79 N N/A 29.94 1014 10 16 N/A
8:35 pm 20:35 Clear 74 23.6 68 19.9 80 80 N N/A 29.94 1014 10 16 N/A
8:55 pm 20:55 Partly Cloudy 74 23.6 67 19.4 77 77 N N/A 29.97 1015 10 16 N/A
9:15 pm 21:15 Mostly Cloudy 74 23.5 67 19.5 78 78 N N/A 29.97 1015 10 16 N/A
9:35 pm 21:35 Mostly Cloudy 74 23.6 67 19.6 78 78 N N/A 29.97 1015 10 16 N/A
9:55 pm 21:55 Partly Cloudy 74 23.6 66 18.7 74 74 N 3 6 29.97 1015 10 16 N/A
10:15 pm 22:15 Partly Cloudy 74 23.6 65 18.5 73 73 NNE 3 6 29.97 1015 10 16 N/A
10:35 pm 22:35 Partly Cloudy 74 23.6 65 18.3 72 72 N N/A 29.97 1015 10 16 N/A
10:55 pm 22:55 Partly Cloudy 72 22.3 64 18 77 77 N N/A 29.97 1015 10 16 N/A
11:15 pm 23:15 Mostly Cloudy 69 20.8 63 17 79 79 N N/A 29.97 1015 10 16 N/A
11:35 pm 23:35 Mostly Cloudy 69 20.8 63 17 79 79 N 3 6 30.00 1016 10 16 N/A
11:55 pm 23:55 Partly Cloudy 70 21 61 16.3 75 75 N N/A 30.00 1016 10 16 N/A

Powered by AerisWeather